Corpus Christi, TX

4:59 AM CDT on September 21, 2017 (GMT -0500)
Corpus Christi International

Weather History for KCRP - October, 2012

Change the Weather History Date:

Wednesday, October 31, 2012

  Actual Average Record
Temperature  
Mean Temperature 76 °F 71 °F  
Max Temperature 88 °F 81 °F 95 °F (1947)
Min Temperature 63 °F 61 °F 28 °F (1993)
Degree Days  
Heating Degree Days 0 1  
Month to date heating degree days 9 8  
Since 1 July heating degree days 9 10  
Cooling Degree Days 11 7  
Month to date cooling degree days 400 308  
Year to date cooling degree days 4203 3351  
Growing Degree Days 26 (Base 50)    
Moisture  
Dew Point 65 °F    
Average Humidity 72    
Maximum Humidity 93    
Minimum Humidity 50    
Precipitation  
Precipitation 0.00 in 0.10 in 4.88 in (1981)
Month to date precipitation 0.19 3.64  
Year to date precipitation 18.20 27.96  
Snow  
Snow 0.00 in - - ()
Month to date snowfall 0.0  
Since 1 July snowfall 0.0  
Since 1 September snowfall 0.0  
Snow Depth 0.00 in    
Sea Level Pressure  
Sea Level Pressure 29.99 in    
Wind  
Wind Speed 9 mph (SE)    
Max Wind Speed 20 mph    
Max Gust Speed 24 mph    
Visibility 10 miles    
Events Thunderstorm    
T = Trace of Precipitation, MM = Missing Value Source: NWS Daily Summary

Daily Weather History Graph

Daily Weather History Graph

Search for Another Location

Airport or City:

Trip Planner

Search our weather history database for the weather conditions in past years. The results will help you decide how hot, cold, wet, or windy it might be!

Date:

Astronomy

Oct. 31, 2012 Rise Set
Actual Time 7:40 AM CDT 6:46 PM CDT
Civil Twilight 7:16 AM CDT 7:10 PM CDT
Nautical Twilight 6:48 AM CDT 7:38 PM CDT
Astronomical Twilight 6:21 AM CDT 8:05 PM CDT
Moon 8:08 PM CDT (10/31) 9:13 AM CDT (10/31)
Length of Visible Light 11h 53m
Length of Day
11h 05m
Full, 97% of the Moon is Illuminated
Oct 31
Full
Nov 6
Last Quarter
Nov 13
New
Nov 20
First Quarter
Nov 28
Full

Hourly Weather History & Observations

Time (CDT) Temp. Heat Index Dew Point Humidity Pressure Visibility Wind Dir Wind Speed Gust Speed Precip Events Conditions
12:51 AM 68.0 °F - 59.0 °F 73% 30.00 in 10.0 mi SSE 6.9 mph - N/A   Scattered Clouds
1:51 AM 69.1 °F - 60.1 °F 73% 29.99 in 10.0 mi SSE 5.8 mph - N/A   Scattered Clouds
2:51 AM 68.0 °F - 62.1 °F 81% 29.99 in 10.0 mi Calm Calm - N/A   Mostly Cloudy
3:51 AM 66.9 °F - 61.0 °F 81% 29.98 in 10.0 mi ESE 5.8 mph - N/A   Partly Cloudy
4:51 AM 66.9 °F - 62.1 °F 84% 29.98 in 10.0 mi ESE 6.9 mph - N/A   Partly Cloudy
5:51 AM 64.9 °F - 61.0 °F 87% 29.98 in 10.0 mi SE 5.8 mph - N/A   Partly Cloudy
6:51 AM 66.0 °F - 62.1 °F 87% 29.98 in 10.0 mi SE 5.8 mph - N/A   Partly Cloudy
7:51 AM 64.0 °F - 62.1 °F 93% 29.99 in 10.0 mi SE 6.9 mph - N/A   Partly Cloudy
8:51 AM 73.0 °F - 66.9 °F 81% 30.01 in 10.0 mi SE 5.8 mph - N/A   Partly Cloudy
9:51 AM 80.1 °F 82.7 °F 68.0 °F 67% 30.02 in 10.0 mi SSE 9.2 mph - N/A   Partly Cloudy
10:51 AM 82.0 °F 84.9 °F 68.0 °F 62% 30.04 in 10.0 mi South 9.2 mph - N/A   Scattered Clouds
11:51 AM 86.0 °F 88.2 °F 66.0 °F 51% 30.03 in 10.0 mi SE 11.5 mph - N/A   Scattered Clouds
12:51 PM 84.0 °F 85.8 °F 64.9 °F 53% 30.01 in 10.0 mi Variable 3.5 mph - N/A   Mostly Cloudy
1:51 PM 88.0 °F 90.3 °F 66.0 °F 48% 29.99 in 10.0 mi East 13.8 mph - N/A   Mostly Cloudy
2:51 PM 87.1 °F 89.9 °F 66.9 °F 51% 29.96 in 10.0 mi ESE 15.0 mph 23.0 mph N/A   Scattered Clouds
3:13 PM 84.2 °F 86.6 °F 66.2 °F 55% 29.96 in 10.0 mi ESE 15.0 mph - N/A Thunderstorm Thunderstorm
3:28 PM 86.0 °F 89.4 °F 68.0 °F 55% 29.96 in 10.0 mi East 15.0 mph - N/A   Scattered Clouds
3:51 PM 86.0 °F 88.8 °F 66.9 °F 53% 29.95 in 10.0 mi SE 16.1 mph - N/A   Scattered Clouds
4:51 PM 86.0 °F 88.2 °F 66.0 °F 51% 29.94 in 10.0 mi SE 13.8 mph - N/A   Scattered Clouds
5:51 PM 82.9 °F 85.0 °F 66.0 °F 56% 29.95 in 10.0 mi SE 13.8 mph - N/A   Partly Cloudy
6:51 PM 80.1 °F 82.3 °F 66.9 °F 64% 29.96 in 10.0 mi SE 12.7 mph - N/A   Partly Cloudy
7:51 PM 78.1 °F - 69.1 °F 74% 29.98 in 10.0 mi SE 10.4 mph - N/A   Partly Cloudy
8:51 PM 77.0 °F - 69.1 °F 76% 30.00 in 10.0 mi ESE 8.1 mph - N/A   Clear
9:51 PM 75.0 °F - 68.0 °F 79% 30.01 in 10.0 mi ESE 6.9 mph - N/A   Clear
10:51 PM 75.0 °F - 69.1 °F 82% 30.02 in 10.0 mi SE 8.1 mph - N/A   Clear
11:51 PM 75.0 °F - 69.1 °F 82% 30.02 in 10.0 mi SSE 8.1 mph - N/A   Clear